{"data":{"norad_id":64033,"intl_designator":"2025-102M","name":"STARLINK-33860","alt_names":[],"object_type":"PAYLOAD","status":"ACTIVE","operator":null,"country":"US","launch_date":"2025-05-16","launch_site_code":"AFWTR","launch_vehicle":null,"mission":null,"orbit_class":"UNKNOWN","rcs_meters":null,"size_class":null,"mass_kg":null,"dimensions":null,"purposes":["comms"],"wikipedia_slug":null,"has_3d_model":false,"image_url":null,"decayed_at":null,"tle_current":{"epoch":"2026-05-24T19:08:13.009920Z","epoch_age_seconds":88466,"freshness":"FRESH","line1":"1 64033U 25102M   26144.79737280 -.00001005  00000+0 -76411-4 0  9996","line2":"2 64033  70.0002 282.5054 0003406 268.6129  91.4640 14.98326275 57362","mean_motion":14.98326275,"eccentricity":0.0003406,"inclination_deg":70.0002,"raan_deg":282.5054,"arg_perigee_deg":268.6129,"mean_anomaly_deg":91.464,"bstar":-7.6411e-5,"rev_number":5736,"period_min":96.107238058012,"perigee_km":569.70017060138,"apogee_km":574.43464984563,"semimajor_km":6950.2044102235,"source":"CELESTRAK","updated_at":"2026-05-25T13:38:20.226628Z"}}}